Vero Beach, FL

1:09 PM EST on January 19, 2018 (GMT -0500)
Vero Beach Municipal

Weather History for KVRB - December, 2013

Change the Weather History Date:

Monday, December 23, 2013

  Actual Average Record
Temperature  
Mean Temperature 77 °F 63 °F  
Max Temperature 84 °F 73 °F 84 °F (1990)
Min Temperature 69 °F 54 °F 28 °F (1989)
Degree Days  
Heating Degree Days 0 4  
Month to date heating degree days 18 69  
Since 1 July heating degree days 29 99  
Cooling Degree Days 12 3  
Month to date cooling degree days 126 76  
Year to date cooling degree days 3599 3387  
Growing Degree Days 26 (Base 50)    
Moisture  
Dew Point 71 °F    
Average Humidity 83    
Maximum Humidity 100    
Minimum Humidity 65    
Precipitation  
Precipitation 0.01 in 0.08 in 0.94 in (1971)
Month to date precipitation 2.13 1.63  
Year to date precipitation 44.34 51.31  
Sea Level Pressure  
Sea Level Pressure 30.15 in    
Wind  
Wind Speed 8 mph (SSE)    
Max Wind Speed 18 mph    
Max Gust Speed 23 mph    
Visibility 10 miles    
Events      
T = Trace of Precipitation, MM = Missing Value Source: NWS Daily Summary

Daily Weather History Graph

Daily Weather History Graph

Search for Another Location

Airport or City:

Trip Planner

Search our weather history database for the weather conditions in past years. The results will help you decide how hot, cold, wet, or windy it might be!

Date:

Astronomy

Dec. 23, 2013 Rise Set
Actual Time 7:09 AM EST 5:32 PM EST
Civil Twilight 6:43 AM EST 5:58 PM EST
Nautical Twilight 6:14 AM EST 6:27 PM EST
Astronomical Twilight 5:45 AM EST 6:56 PM EST
Moon 11:11 PM EST (12/23) 11:00 AM EST (12/23)
Length of Visible Light 11h 15m
Length of Day
10h 23m
Waning Gibbous, 68% of the Moon is Illuminated
Dec 23
Waning Gibbous
Dec 25
Last Quarter
Jan 1
New
Jan 7
First Quarter
Jan 15
Full

Hourly Weather History & Observations

Time (EST) Temp. Heat Index Dew Point Humidity Pressure Visibility Wind Dir Wind Speed Gust Speed Precip Events Conditions
12:53 AM 72.0 °F - 71.1 °F 97% 30.17 in 10.0 mi SSE 6.9 mph - 0.01 in   Mostly Cloudy
1:53 AM 71.1 °F - 71.1 °F 100% 30.16 in 10.0 mi Calm Calm - N/A   Clear
2:53 AM 70.0 °F - 70.0 °F 100% 30.14 in 10.0 mi SSE 5.8 mph - N/A   Clear
3:53 AM 70.0 °F - 70.0 °F 100% 30.14 in 10.0 mi SSE 4.6 mph - N/A   Clear
4:53 AM 71.1 °F - 71.1 °F 100% 30.14 in 10.0 mi South 4.6 mph - N/A   Clear
5:53 AM 71.1 °F - 71.1 °F 100% 30.14 in 10.0 mi SSE 5.8 mph - N/A   Clear
6:53 AM 72.0 °F - 71.1 °F 97% 30.16 in 10.0 mi South 4.6 mph - N/A   Mostly Cloudy
7:53 AM 72.0 °F - 72.0 °F 100% 30.17 in 10.0 mi SSW 3.5 mph - N/A   Overcast
8:53 AM 73.9 °F - 72.0 °F 93% 30.19 in 10.0 mi South 6.9 mph - N/A   Scattered Clouds
9:53 AM 79.0 °F - 73.0 °F 82% 30.19 in 10.0 mi South 10.4 mph - N/A   Scattered Clouds
10:32 AM 80.6 °F 84.6 °F 71.6 °F 74% 30.19 in 10.0 mi SSE 15.0 mph - N/A   Mostly Cloudy
10:51 AM 80.6 °F 84.6 °F 71.6 °F 74% 30.19 in 10.0 mi South 13.8 mph 19.6 mph N/A   Mostly Cloudy
10:53 AM 81.0 °F 84.9 °F 71.1 °F 72% 30.19 in 10.0 mi SSE 15.0 mph 19.6 mph N/A   Mostly Cloudy
11:53 AM 82.0 °F 85.5 °F 69.1 °F 65% 30.17 in 10.0 mi South 10.4 mph - N/A   Mostly Cloudy
12:53 PM 81.0 °F 85.2 °F 72.0 °F 74% 30.14 in 10.0 mi SE 9.2 mph - N/A   Mostly Cloudy
1:53 PM 81.0 °F 85.2 °F 72.0 °F 74% 30.12 in 10.0 mi SE 9.2 mph - N/A   Mostly Cloudy
2:53 PM 80.1 °F 83.8 °F 72.0 °F 76% 30.12 in 10.0 mi SE 9.2 mph - N/A   Mostly Cloudy
3:53 PM 79.0 °F - 73.0 °F 82% 30.11 in 10.0 mi SE 15.0 mph - N/A   Partly Cloudy
4:53 PM 77.0 °F - 73.0 °F 88% 30.12 in 10.0 mi SE 13.8 mph - N/A   Scattered Clouds
5:53 PM 75.9 °F - 72.0 °F 87% 30.12 in 10.0 mi SE 10.4 mph - N/A   Clear
6:53 PM 73.9 °F - 71.1 °F 91% 30.14 in 10.0 mi SSE 8.1 mph - N/A   Clear
7:53 PM 75.0 °F - 70.0 °F 84% 30.15 in 10.0 mi South 10.4 mph - N/A   Overcast
8:53 PM 73.9 °F - 66.9 °F 79% 30.16 in 10.0 mi SSW 8.1 mph - N/A   Overcast
9:53 PM 73.0 °F - 69.1 °F 87% 30.16 in 10.0 mi SW 6.9 mph - N/A   Overcast
10:53 PM 73.0 °F - 64.9 °F 76% 30.15 in 10.0 mi SW 9.2 mph - N/A   Partly Cloudy
11:53 PM 72.0 °F - 66.9 °F 84% 30.14 in 10.0 mi ESE 8.1 mph - N/A   Overcast